Location: Taipo
(41.0000°S, 175.9500°E)
Time: 10:15:53
(UTC+00:00)

AQUARIUS - Pass Details

Date: 18 April 2024
Orbit: 641 x 644 km, 98.0° (Epoch: 24 May)

Event Time Altitude Azimuth Distance (km) Brightness Sun altitude
Rises 17:52:19 0° 14° (NNE) 2,943 7.8 -11.6°
Reaches altitude 10° 17:54:30 10° 14° (NNE) 2,042 7.0 -11.2°
Maximum altitude 17:58:58 90° 350° (N) 658 4.2 -10.4°
Drops below altitude 10° 18:03:30 10° 193° (SSW) 2,073 6.6 -9.5°
Sets 18:05:44 0° 192° (SSW) 2,991 7.4 -9.1°
